Simultaneous Nadir Overpasses (SNOs) Predictions

Prediction of SNOs between GOES-14 and NOAA-20 Satellite Orbit:

Table of predicted SNOs for the next 14.0 days since TLE Epoch: 11/2/2018
Index Date Time (GOES-14) GOES-14 Lat,Lon NOAA-20 Lat,Lon Distance(km) Time Diff (sec)
1 11/03/2018 20:20:26 -0.14,-104.05 -0.21,-104.29 27.76 80
2 11/04/2018 20:04:21 -0.16,-104.06 0.82, -99.76 490.01 80
3 11/06/2018 08:26:09 0.13,-104.14 0.31,-105.04 102.40 80
4 11/07/2018 08:04:44 0.15,-104.13 -0.66,-100.50 413.78 80
5 11/08/2018 20:26:40 -0.12,-104.05 -0.52,-105.80 200.10 80
6 11/09/2018 20:10:36 -0.13,-104.05 0.51,-101.27 317.76 80
7 11/11/2018 08:32:24 0.11,-104.16 0.62,-106.55 271.65 80
8 11/12/2018 08:10:59 0.12,-104.15 -0.35,-102.01 244.53 80
9 11/13/2018 20:32:55 -0.09,-104.04 -0.82,-107.31 372.37 80
10 11/14/2018 20:16:49 -0.10,-104.05 0.15,-102.77 145.49 80
11 11/16/2018 08:38:39 0.07,-104.19 0.92,-108.06 440.82 80




NCC Satellite Simultaneous Nadir Overpasses (SNOs) Prediction Service
